Tracking 20475 objects as of 27-Feb-2020
HD Live streaming from Space Station
objects crossing your sky now

THORAD DELTA 1 DEB

Track THORAD DELTA 1 DEB now!
10-day predictions


NORAD ID: 10392
Int'l Code: 1974-089EH
Perigee: 1,390.2 km
Apogee: 1,469.3 km
Inclination: 101.5 °
Period: 114.3 minutes
Semi major axis: 7800 km
RCS: 0.0162 m2 (small)
Launch date: November 15, 1974
Source: United States (US)
Launch site: AIR FORCE WESTERN TEST RANGE (AFWTR)

Note: This is SATELLITE DEBRIS
aabbcc
Your satellite tracking list
Your tracking list is empty




NASA's NSSDC Master Catalog

Two Line Element Set (TLE):
1 10392U 74089EH  20057.16252583 -.00000036 +00000-0 +48844-4 0  9991
2 10392 101.5315 131.8882 0050730 155.3393 234.7152 12.60080219084711
Source of the keplerian elements: AFSPC